Miscellaneous Local Product
Issued by NWS North Platte, NE

Home | Current Version | Previous Version | Text Only | Print | Product List | Glossary On
Versions: 1 2 3 4 5 6 7 8 9 10 11 12 13 14 15 16 17 18 19 20 21 22 23 24 25 26 27 28 29 30 31 32 33 34 35 36 37 38 39 40 41 42 43 44 45 46 47 48 49 50
052
AXUS43 KLBF 050910
MISLBF


WESTERN AND NORTH CENTRAL NEBRASKA HOURLY WEATHER ROUNDUP
NATIONAL WEATHER SERVICE NORTH PLATTE NE
400 AM CDT THU MAY 05 2016

NOTE: "FAIR" INDICATES FEW OR NO CLOUDS BELOW 12,000 FEET WITH NO
SIGNIFICANT WEATHER AND/OR OBSTRUCTIONS TO VISIBILITY.

NOTE: STATIONS NOT REPORTING VARIABLES SUCH AS SKY/WEATHER OR
PRESSURE ARE PROVIDED BY RAWS AND APRS NETWORKS AND ARE NOT UNDER
NATIONAL WEATHER SERVICE QUALITY CONTROL.

...OBSERVATIONS IN AND NEAR THE EASTERN PANHANDLE OF NEBRASKA...

CITY           SKY/WX    TMP DP  RH WIND       PRES   REMARKS
PINE RIDGE     CLEAR     56  40  55 W6        30.02F
CHADRON        CLEAR     47  41  80 VRB3      30.01F
ALLIANCE       CLEAR     45  40  82 S5        30.06F
SIDNEY         CLEAR     47  40  76 SW12      30.10F
CRESCENT LAKE    N/A     49  42  76 S3          N/A
BIG SPRINGS      N/A     54  42  64 SW5         N/A
$$

...OBSERVATIONS IN NORTHERN NEBRASKA AND FAR SOUTHERN SOUTH DAKOTA...

CITY           SKY/WX    TMP DP  RH WIND       PRES   REMARKS
WINNER         FAIR      52  38  58 SW7       30.04S
VALENTINE      CLEAR     48  37  65 W3        30.06F
THEDFORD       CLEAR     45  38  77 CALM      30.09S
AINSWORTH      CLEAR     43  37  78 S6        30.07S
O`NEILL        CLEAR     47  46  96 SW3       30.06S
ORD            CLEAR     38  36  92 W3        30.07R
BROKEN BOW     PTCLDY    39  36  89 CALM      30.08S
VALENTINE NWR    N/A     47  39  74 CALM        N/A
BUTTE            N/A     51  38  61 SW3         N/A
HALSEY           N/A     49  34  57 S3          N/A
EWING            N/A     43  38  84 CALM        N/A
$$

...OBSERVATIONS IN SOUTHWEST NEBRASKA AND FAR NORTHEAST COLORADO...

CITY           SKY/WX    TMP DP  RH WIND       PRES   REMARKS
HOLYOKE        FAIR      48  43  81 SW8       30.10S
IMPERIAL       CLEAR     49  42  77 CALM      30.09F
OGALLALA       PTCLDY    48  39  70 W5        30.09S
NORTH PLATTE   CLEAR     41  37  86 CALM      30.09S
MCCOOK         CLEAR     47  40  76 CALM      30.09S
LEXINGTON      CLEAR     42  38  88 CALM      30.10R
PAXTON           N/A     50  44  79 S7          N/A
STAPLETON        N/A     42  38  85 CALM        N/A
GOTHENBURG       N/A     48  38  69 CALM        N/A
CALLAWAY         N/A     46  38  73 SE3         N/A
$$

...OBSERVATIONS IN CENTRAL LINCOLN COUNTY AREA...

CITY           SKY/WX    TMP DP  RH WIND       PRES   REMARKS
N.P. AIRPORT   CLEAR     41  37  86 CALM      30.09S
N.P. DOWNTOWN    N/A     47  43  85 CALM        N/A
N.P. SOUTHEAST   N/A     46  41  82 CALM        N/A
N.P. HILLCREST   N/A     52  38  60 CALM        N/A
$$

...SOME OBSERVATIONS FROM AROUND THE REGION...

CITY           SKY/WX    TMP DP  RH WIND       PRES   REMARKS
DENVER         CLOUDY    48  34  58 S13       30.12F
LARAMIE        CLOUDY    37  31  78 SW9       30.20S WCI  30
CHEYENNE       CLOUDY    48  34  58 SW9       30.15F
SCOTTSBLUFF    CLEAR     49  40  71 E8        30.07F
RAPID CITY     CLEAR     47  42  83 SE8       29.98F
BISMARCK       CLEAR     59  45  59 SW7       29.92F
PIERRE         PTCLDY    46  38  73 CALM      29.99F
SIOUX FALLS    CLOUDY    41  36  82 CALM      30.02F
OMAHA          CLEAR     47  42  83 N3        30.02S
GRAND ISLAND   CLEAR     43  36  76 W3        30.08R
KANSAS CITY    PTCLDY    48  40  73 W7        30.00S
WICHITA        CLEAR     49  40  71 NW7       30.05R
OKLAHOMA CITY  CLEAR     54  43  66 CALM      30.05R
DALLAS         CLEAR     61  51  70 N7        30.01S
AMARILLO       CLEAR     52  38  58 S8        30.13S
DODGE CITY     CLEAR     49  41  74 S6        30.10F
HAYS           CLEAR     43  34  70 W7        30.08S
GOODLAND       CLEAR     53  42  66 SW9       30.10F
$$




USA.gov is the U.S. government's official web portal to all federal, state and local government web resources and services.